STARLINK-1235 (45232 NORAD) Tracking and Keplerian Element Data

This shows tracking and keplerian element data for the satellite.

Feedback or suggestion? Click here.




ElementValue
Catalog45232
NameSTARLINK-1235
Epoch Orbit162
Epoch Day93.91667824
Epoch Year2020
RAAN41.5507
Inclination52.9993
Eccentricity0.0006223
Argument of Perigee292.7015
Mean Anonmoly105.9159
Mean Motion15.62764706
Decay Rate-8.506E-05
L11 45232U 20012BG 20093.91667824 -.00008506 00000-0 -86956-4 0 9997
L22 45232 52.9993 41.5507 0006223 292.7015 105.9159 15.62764706 1629

Live tracking and technical data element details for STARLINK-1235 (NORAD 45232). STARLINK-1235 can be tracked NOW for your location showing map with azimuth and elevation plus other details from your city location.

Track the satellite on the map from your city or location and see movement details for azimuth, elevation, latitude, longitude, range, height, and movement on the map or in text.







IsCatalogInMostPopularTable: catalog: 45232, numindb: 5
Update: records affected: 1



GetName: 45232 STARLINK-1235

Hit Count: updated at: Tue, 07 Apr 2020 16:10:35 GMT